Weather observations for the past three days for
Gonzales Roger M. Dreyer Memorial
| Date | Time (cdt) | Wind (kph) | Vis. (km) | Weather | Sky Cond. | Temperature (ºC) | Relative Humidity | Wind Chill (°C) | Heat Index (°C) | Pressure | Precipitation (cm) | ||||||
|---|---|---|---|---|---|---|---|---|---|---|---|---|---|---|---|---|---|
| Air | Dwpt | 6 hour | altimeter (cm) | sea level (mb) | 1 hr | 3 hr | 6 hr | ||||||||||
| Max. | Min. | ||||||||||||||||
| 07 | 21:35 | NE 6 | 0.00 | Fair | CLR | 19.6 | 13.8 | 69% | 76 | 0.0 | |||||||
| 07 | 21:15 | E 11 | 0.00 | Fair | CLR | 19.8 | 14 | 69% | 76 | 0.0 | |||||||
| 07 | 20:55 | E 11 | 0.00 | Fair | CLR | 19.8 | 13.7 | 68% | 75.95 | 0.0 | |||||||
| 07 | 20:35 | E 13 | 0.00 | Partly Cloudy | SCT050 | 20 | 13.9 | 68% | 75.97 | 0.0 | |||||||
| 07 | 20:15 | NE 9 | 0.00 | Mostly Cloudy | BKN050 | 20.4 | 13.9 | 66% | 76.05 | 0.0 | |||||||
| 07 | 19:55 | NE 11 | 0.00 | Overcast | OVC046 | 20.5 | 13.9 | 66% | 76.07 | 0.0 | |||||||
| 07 | 19:35 | N 13 | 0.00 | Overcast | OVC042 | 20.6 | 14 | 66% | 76.1 | 0.0 | |||||||
| 07 | 19:15 | NE 9 | 0.00 | Overcast | OVC040 | 20.7 | 14 | 66% | 76.07 | 0.0 | |||||||
| 07 | 18:55 | NE 13 | 0.00 | Mostly Cloudy | BKN038 | 20.9 | 14.1 | 22.9 | 19.9 | 65% | 76.12 | 0.0 | |||||
| 07 | 18:35 | NE 11 | 0.00 | Fair | CLR | 21 | 14.3 | 66% | 76.1 | 0.0 | |||||||
| 07 | 18:15 | NE 11 | 0.00 | Partly Cloudy | SCT029 | 20.6 | 14.1 | 66% | 76.1 | 0.0 | |||||||
| 07 | 17:55 | N 19 G 26 | 0.00 | Partly Cloudy | SCT031 | 20.6 | 14.4 | 68% | 76.12 | 0.0 | |||||||
| 07 | 17:35 | N 19 G 30 | 0.00 | Partly Cloudy | SCT031 SCT120 | 20.8 | 14.5 | 67% | 76.12 | 0.0 | |||||||
| 07 | 17:15 | N 20 G 26 | 0.00 | Mostly Cloudy | SCT031 BKN120 | 21.2 | 14.7 | 67% | 76.1 | 0.0 | |||||||
| 07 | 16:55 | N 15 | 0.00 | Mostly Cloudy | BKN031 BKN120 | 21.9 | 15.2 | 66% | 76.12 | 0.0 | |||||||
| 07 | 16:35 | N 15 G 26 | 0.00 | Partly Cloudy | SCT031 SCT044 SCT120 | 22.5 | 15.7 | 66% | 76.1 | 0.0 | |||||||
| 07 | 16:15 | NE 17 G 28 | 0.00 | Partly Cloudy | SCT120 | 22.8 | 15.7 | 64% | 76.1 | 0.0 | |||||||
| 07 | 15:55 | N 13 G 26 | 0.00 | Partly Cloudy | SCT120 | 22.6 | 15.6 | 65% | 76.1 | 0.0 | |||||||
| 07 | 15:35 | N 15 G 26 | 0.00 | Partly Cloudy | SCT120 | 22.3 | 15.5 | 66% | 76.1 | 0.0 | |||||||
| 07 | 15:15 | NE 11 | 0.00 | Fair | CLR | 22.3 | 15.6 | 66% | 76.1 | 0.0 | |||||||
| 07 | 14:55 | N 13 | 0.00 | Partly Cloudy | SCT031 SCT045 | 22.2 | 15.5 | 66% | 76.15 | 0.0 | |||||||
| 07 | 14:35 | N 15 | 0.00 | Overcast | BKN031 OVC045 | 22.4 | 15.7 | 66% | 76.17 | 0.0 | |||||||
| 07 | 14:15 | N 11 | 0.00 | Overcast | SCT031 OVC045 | 21.8 | 15.6 | 68% | 76.2 | 0.0 | |||||||
| 07 | 13:55 | NE 13 | 0.00 | Partly Cloudy | SCT045 | 22.2 | 15.5 | 66% | 76.2 | 0.0 | |||||||
| 07 | 13:35 | NE 11 | 0.00 | Fair | CLR | 21.1 | 14.9 | 68% | 76.2 | 0.0 | |||||||
| 07 | 13:15 | NE 17 | 0.00 | Partly Cloudy | SCT026 SCT055 | 20.9 | 14.6 | 67% | 76.23 | 0.0 | |||||||
| 07 | 12:55 | NE 19 G 31 | 0.00 | Mostly Cloudy | BKN028 BKN055 | 19.8 | 14.2 | 20.1 | 16.5 | 70% | 76.25 | 0.0 | |||||
| 07 | 12:35 | N 19 | 0.00 | Overcast | OVC028 | 20 | 14.6 | 71% | 76.3 | 0.0 | |||||||
| 07 | 12:15 | NE 19 | 0.00 | Overcast | OVC028 | 19.3 | 14.3 | 73% | 76.33 | 0.0 | |||||||
| 07 | 11:55 | N 19 G 26 | 0.00 | Overcast | OVC026 | 19.1 | 14.1 | 73% | 76.3 | 0.0 | |||||||
| 07 | 11:35 | N 20 G 28 | 0.00 | Overcast | SCT019 OVC026 | 18.6 | 14 | 75% | 76.33 | 0.0 | |||||||
| 07 | 11:15 | N 24 G 31 | 0.00 | Overcast | BKN017 OVC026 | 19.1 | 14.5 | 75% | 76.3 | 0.0 | |||||||
| 07 | 10:55 | N 26 G 35 | 0.00 | Overcast | BKN017 OVC026 | 18.6 | 14.2 | 76% | 76.28 | 0.0 | |||||||
| 07 | 10:35 | N 20 G 28 | 0.00 | Overcast | BKN017 OVC026 | 17.8 | 14.1 | 79% | 76.3 | 0.0 | |||||||
| 07 | 10:15 | N 17 | 0.00 | Overcast | OVC015 | 17 | 13.6 | 81% | 76.3 | 0.0 | |||||||
| 07 | 09:55 | N 15 G 26 | 0.00 | Overcast | OVC013 | 16.8 | 13.8 | 83% | 76.3 | 0.0 | |||||||
| 07 | 09:35 | N 15 G 30 | 0.00 | Overcast | OVC011 | 17 | 14.2 | 84% | 76.28 | 0.0 | |||||||
| 07 | 09:15 | N 22 G 31 | 0.00 | Overcast | OVC011 | 16.7 | 14.3 | 86% | 76.25 | 0.0 | |||||||
| 07 | 08:55 | N 20 G 37 | 0.00 | Overcast | OVC011 | 17 | 14.3 | 84% | 76.23 | 0.0 | |||||||
| 07 | 08:35 | N 19 G 39 | 0.00 | Overcast | OVC011 | 16.7 | 14.2 | 85% | 76.25 | 0.0 | |||||||
| 07 | 08:15 | N 22 G 30 | 0.00 | Overcast | OVC011 | 16.5 | 14.2 | 86% | 76.28 | 0.0 | |||||||
| 07 | 07:55 | N 9 | 0.00 | Overcast | OVC011 | 16.5 | 14.5 | 88% | 76.33 | 0.0 | |||||||
| 07 | 07:35 | N 20 G 31 | 0.00 | Overcast | OVC011 | 16.5 | 14.4 | 88% | 76.2 | 0.0 | |||||||
| 07 | 07:15 | N 19 G 31 | 0.00 | Overcast | OVC013 | 16.7 | 14.4 | 86% | 76.17 | 0.0 | |||||||
| 07 | 06:55 | N 15 G 26 | 0.00 | Overcast | OVC015 | 17 | 14.3 | 18.2 | 17 | 84% | 76.2 | 0.0 | |||||
| 07 | 06:35 | N 13 G 26 | 0.00 | Overcast | OVC017 | 17.2 | 14.4 | 84% | 76.23 | 0.0 | |||||||
| 07 | 06:15 | N 17 | 0.00 | Overcast | OVC017 | 17.5 | 14.6 | 83% | 76.12 | 0.0 | |||||||
| 07 | 05:55 | N 17 G 28 | 0.00 | Overcast | OVC017 | 17.6 | 14.6 | 83% | 76.1 | 0.0 | |||||||
| 07 | 05:35 | N 22 G 30 | 0.00 | Overcast | OVC017 | 17.6 | 14.5 | 82% | 76.1 | 0.0 | |||||||
| 07 | 05:15 | N 19 | 0.00 | Overcast | OVC017 | 17.7 | 14.5 | 82% | 76.1 | 0.0 | |||||||
| 07 | 04:55 | N 15 | 0.00 | Overcast | OVC019 | 17.7 | 14.5 | 82% | 76.1 | 0.0 | |||||||
| 07 | 04:35 | N 15 | 0.00 | Overcast | OVC019 | 17.8 | 14.5 | 81% | 76.1 | 0.0 | |||||||
| 07 | 04:15 | N 13 | 0.00 | Overcast | OVC019 | 18 | 14.5 | 80% | 76.1 | 0.0 | |||||||
| 07 | 03:55 | N 17 | 0.00 | Overcast | OVC019 | 18 | 14.5 | 80% | 76.07 | 0.0 | |||||||
| 07 | 03:35 | N 13 | 0.00 | Overcast | OVC019 | 18 | 14.5 | 80% | 76.07 | 0.0 | |||||||
| 07 | 03:15 | N 11 | 0.00 | Overcast | OVC019 | 18 | 14.5 | 80% | 76.1 | 0.0 | |||||||
| 07 | 02:55 | N 11 | 0.00 | Overcast | OVC019 | 18 | 14.4 | 80% | 76.07 | 0.0 | |||||||
| 07 | 02:15 | N 7 | 0.00 | Overcast | OVC019 | 18.1 | 14.5 | 80% | 76.1 | 0.0 | |||||||
| 07 | 01:55 | N 15 | 0.00 | Overcast | OVC021 | 18.1 | 14.5 | 80% | 76.1 | 0.0 | |||||||
| 07 | 01:35 | N 13 | 0.00 | Overcast | OVC021 | 18.2 | 14.7 | 80% | 76.1 | 0.0 | |||||||
| 07 | 01:15 | N 11 | 0.00 | Overcast | OVC021 | 18.2 | 14.7 | 80% | 76.07 | 0.0 | |||||||
| 07 | 00:55 | NE 13 | 0.00 | Overcast | OVC021 | 18.2 | 14.6 | 21.3 | 18 | 80% | 76.07 | 0.0 | |||||
| 07 | 00:35 | N 15 G 28 | 0.00 | Overcast | OVC021 | 18.2 | 14.6 | 80% | 76.07 | 0.0 | |||||||
| 07 | 00:15 | N 11 | 0.00 | Overcast | OVC021 | 18.3 | 14.6 | 79% | 76.1 | 0.0 | |||||||
| 06 | 23:55 | N 15 | 0.00 | Overcast | OVC021 | 18.4 | 14.7 | 79% | 76.1 | 0.0 | |||||||
| 06 | 23:35 | N 15 | 0.00 | Overcast | OVC021 | 18.5 | 14.8 | 79% | 76.05 | 0.0 | |||||||
| 06 | 23:15 | N 11 | 0.00 | Overcast | OVC021 | 18.4 | 15 | 81% | 76.02 | 0.0 | |||||||
| 06 | 22:35 | N 13 | 0.00 | Overcast | OVC021 | 18.2 | 14.8 | 81% | 76.02 | 0.0 | |||||||
| 06 | 22:15 | N 17 | 0.00 | Overcast | OVC021 | 18.2 | 14.7 | 80% | 76.02 | 0.0 | |||||||
| 06 | 21:55 | N 15 | 0.00 | Mostly Cloudy | BKN021 BKN036 | 18.2 | 14.7 | 80% | 76 | 0.0 | |||||||
| 06 | 21:35 | N 13 | 0.00 | Partly Cloudy | SCT036 | 18.1 | 14.8 | 81% | 75.97 | 0.0 | |||||||
| 06 | 21:15 | N 13 G 28 | 0.00 | Fair | CLR | 18.1 | 14.7 | 81% | 75.95 | 0.0 | |||||||
| 06 | 20:55 | N 13 | 0.00 | Fair | CLR | 18.3 | 15 | 81% | 75.92 | 0.0 | |||||||
| 06 | 20:35 | N 17 G 30 | 0.00 | Fair | CLR | 18.5 | 15 | 80% | 75.9 | 0.0 | |||||||
| 06 | 20:15 | N 19 G 26 | 0.00 | Fair | CLR | 18.8 | 15 | 79% | 75.87 | 0.0 | |||||||
| 06 | 19:55 | N 17 G 30 | 0.00 | Fair | CLR | 19.1 | 15.1 | 78% | 75.87 | 0.0 | |||||||
| 06 | 19:35 | N 22 G 31 | 0.00 | Fair | CLR | 19.8 | 15.5 | 76% | 75.79 | 0.0 | |||||||
| 06 | 19:15 | N 17 G 30 | 0.00 | Fair | CLR | 20.5 | 15.8 | 75% | 75.79 | 0.0 | |||||||
| 06 | 18:55 | N 20 G 33 | 0.00 | Fair | CLR | 21.4 | 16.5 | 30.9 | 21.4 | 74% | 75.79 | 0.0 | |||||
| 06 | 18:35 | N 22 G 31 | 0.00 | Fair | CLR | 22.2 | 17.2 | 73% | 75.77 | 0.0 | |||||||
| 06 | 18:15 | N 20 G 33 | 0.00 | Fair | CLR | 23.2 | 18 | 73% | 75.74 | 0.0 | |||||||
| 06 | 17:55 | N 19 G 33 | 0.00 | Fair | CLR | 24.2 | 18.8 | 72% | 25 | 75.74 | 0.0 | ||||||
| 06 | 17:35 | N 20 G 33 | 0.00 | Fair | CLR | 25.5 | 19.9 | 71% | 27 | 75.72 | 0.0 | ||||||
| 06 | 17:15 | N 17 G 31 | 0.00 | Partly Cloudy | SCT026 SCT034 SCT049 | 26 | 20.8 | 73% | 27 | 75.67 | 0.0 | ||||||
| 06 | 16:55 | N 19 G 28 | 0.00 | Overcast | BKN028 OVC034 | 27 | 21.9 | 74% | 29 | 75.67 | 0.0 | ||||||
| 06 | 16:35 | N 20 G 28 | 0.00 | Overcast | OVC032 | 27.5 | 22.2 | 73% | 30 | 75.67 | 0.0 | ||||||
| 06 | 16:15 | N 17 G 30 | 0.00 | Overcast | BKN029 BKN047 OVC060 | 28.2 | 22.7 | 72% | 31 | 75.67 | 0.0 | ||||||
| 06 | 15:55 | N 7 | 0.00 | Mostly Cloudy | SCT033 SCT048 BKN055 | 29 | 23.7 | 73% | 33 | 75.67 | 0.0 | ||||||
| 06 | 15:35 | N 9 | 0.00 | Mostly Cloudy | BKN032 BKN039 BKN049 | 29.6 | 24.1 | 72% | 35 | 75.67 | 0.0 | ||||||
| 06 | 15:15 | N 7 | 0.00 | Fair | CLR | 30.2 | 23.4 | 67% | 35 | 75.67 | 0.0 | ||||||
| 06 | 14:55 | Calm | 0.00 | Partly Cloudy | SCT026 SCT042 SCT065 | 30.4 | 23.6 | 67% | 35 | 75.67 | 0.0 | ||||||
| 06 | 14:35 | Calm | 0.00 | Mostly Cloudy | SCT024 BKN042 | 29.6 | 23.5 | 70% | 34 | 75.67 | 0.0 | ||||||
| 06 | 14:15 | E 9 | 0.00 | Partly Cloudy | SCT024 | 30.3 | 24.1 | 69% | 36 | 75.69 | 0.0 | ||||||
| 06 | 13:55 | NE 9 | 0.00 | Partly Cloudy | SCT065 | 29.5 | 23.6 | 71% | 34 | 75.72 | 0.0 | ||||||
| 06 | 13:35 | NE 11 | 0.00 | Overcast | OVC065 | 28.7 | 23.9 | 75% | 33 | 75.72 | 0.0 | ||||||
| 06 | 13:15 | NE 7 | 0.00 | Overcast | BKN042 OVC065 | 27.7 | 23.9 | 80% | 31 | 75.74 | 0.0 | ||||||
| 06 | 12:55 | NE 7 | 0.00 | Overcast | SCT020 SCT033 OVC040 | 27.6 | 23.9 | 28.4 | 23.7 | 80% | 31 | 75.77 | 0.0 | ||||
| 06 | 12:35 | Calm | 0.00 | Mostly Cloudy | SCT020 SCT024 BKN032 | 27.6 | 23.6 | 79% | 31 | 75.77 | 0.0 | ||||||
| 06 | 12:15 | NE 6 | 0.00 | Mostly Cloudy | SCT024 SCT032 BKN060 | 28.2 | 23.9 | 78% | 32 | 75.79 | 0.0 | ||||||
| 06 | 11:55 | E 11 | 0.00 | Overcast | SCT018 BKN025 OVC060 | 27.4 | 24 | 82% | 31 | 75.82 | 0.0 | ||||||
| 06 | 11:35 | E 6 | 0.00 | Overcast | BKN016 BKN025 OVC055 | 27.1 | 23.9 | 83% | 30 | 75.82 | 0.0 | ||||||
| 06 | 11:15 | Calm | 0.00 | Overcast | BKN016 OVC023 | 27.1 | 23.7 | 82% | 30 | 75.79 | 0.0 | ||||||
| 06 | 10:55 | Calm | 0.00 | Overcast | OVC014 | 27.1 | 23.9 | 83% | 30 | 75.77 | 0.0 | ||||||
| 06 | 10:35 | SE 6 | 0.00 | Overcast | BKN014 OVC021 | 27 | 23.9 | 83% | 30 | 75.74 | 0.0 | ||||||
| 06 | 10:15 | E 9 | 0.00 | Overcast | OVC014 | 26.6 | 23.7 | 84% | 29 | 75.74 | 0.0 | ||||||
| 06 | 09:55 | E 9 | 0.00 | Overcast | OVC012 | 26.4 | 23.9 | 86% | 29 | 75.72 | 0.0 | ||||||
| 06 | 09:35 | SE 11 | 0.00 | Overcast | OVC012 | 26 | 23.7 | 87% | 28 | 75.72 | 0.0 | ||||||
| 06 | 09:15 | SE 9 | 0.00 | Overcast | OVC010 | 25.6 | 23.9 | 90% | 27 | 75.69 | 0.0 | ||||||
| 06 | 08:55 | SE 11 | 0.00 | Overcast | OVC006 | 25 | 23.8 | 93% | 26 | 75.67 | 0.0 | ||||||
| 06 | 08:35 | SE 9 | 0.00 | Overcast | OVC006 | 24.8 | 23.8 | 94% | 25 | 75.67 | 0.0 | ||||||
| 06 | 08:15 | SE 7 | 0.00 | Overcast | OVC006 | 24.5 | 23.6 | 95% | 24 | 75.67 | 0.0 | ||||||
| 06 | 07:55 | E 6 | 0.00 | Overcast | OVC006 | 24.2 | 23.5 | 96% | 23 | 75.67 | 0.0 | ||||||
| 06 | 07:35 | E 7 | 0.00 | Overcast | OVC006 | 24 | 23.5 | 97% | 23 | 75.64 | 0.0 | ||||||
| 06 | 07:15 | Calm | 0.00 | Overcast | OVC006 | 23.8 | 23.3 | 97% | 75.64 | 0.0 | |||||||
| 06 | 06:55 | Calm | 0.00 | Overcast | OVC008 | 23.7 | 23.1 | 24.5 | 23 | 96% | 75.64 | 0.0 | |||||
| 06 | 06:35 | SE 7 | 0.00 | Overcast | OVC008 | 23.7 | 23.1 | 96% | 75.64 | 0.0 | |||||||
| 06 | 06:15 | S 6 | 0.00 | Overcast | OVC008 | 23.6 | 23 | 96% | 75.62 | 0.0 | |||||||
| 06 | 05:55 | SE 7 | 0.00 | Overcast | OVC008 | 23.6 | 23.1 | 97% | 75.62 | 0.0 | |||||||
| 06 | 05:35 | S 7 | 0.00 | Overcast | OVC010 | 23.5 | 23.1 | 98% | 75.62 | 0.0 | |||||||
| 06 | 05:15 | S 6 | 0.00 | Overcast | OVC012 | 23.2 | 23 | 99% | 75.62 | 0.0 | |||||||
| 06 | 04:55 | S 7 | 0.00 | Overcast | OVC016 | 23.1 | 22.8 | 98% | 75.59 | 0.0 | |||||||
| 06 | 04:35 | S 6 | 0.00 | NULL | NULL | 23 | 22.6 | 98% | 75.59 | 0.0 | |||||||
| 06 | 04:15 | S 6 | 0.00 | NULL | NULL | 23.3 | 22.8 | 97% | 75.62 | 0.0 | |||||||
| 06 | 03:55 | S 7 | 0.00 | Mostly Cloudy | BKN018 | 23.5 | 23 | 97% | 75.59 | 0.0 | |||||||
| 06 | 03:35 | S 7 | 0.00 | NULL | NULL | 23.5 | 23 | 97% | 75.59 | 0.0 | |||||||
| 06 | 03:15 | S 7 | 0.00 | NULL | NULL | 23.5 | 23 | 97% | 75.59 | 0.0 | |||||||
| 06 | 02:55 | S 7 | 0.00 | NULL | NULL | 23.8 | 23 | 95% | 75.59 | 0.0 | |||||||
| 06 | 02:35 | SE 7 | 0.00 | NULL | NULL | 23.9 | 23 | 95% | 23 | 75.62 | 0.0 | ||||||
| 06 | 02:15 | S 9 | 0.00 | NULL | NULL | 24 | 23 | 94% | 23 | 75.64 | 0.0 | ||||||
| 06 | 01:55 | S 13 | 0.00 | NULL | NULL | 24.2 | 23.1 | 94% | 24 | 75.62 | 0.0 | ||||||
| 06 | 01:35 | S 15 G 26 | 0.00 | NULL | NULL | 24.3 | 23.2 | 94% | 24 | 75.64 | 0.0 | ||||||
| 06 | 01:15 | S 19 | 0.00 | NULL | NULL | 24.3 | 23.3 | 94% | 24 | 75.64 | 0.0 | ||||||
| 06 | 00:15 | SE 15 G 26 | 0.00 | NULL | NULL | 24.7 | 23.2 | 91% | 25 | 75.64 | 0.0 | ||||||
| 05 | 23:55 | S 15 G 28 | 0.00 | NULL | NULL | 24.7 | 23.2 | 91% | 25 | 75.64 | 0.0 | ||||||
| 05 | 23:35 | SE 19 | 0.00 | NULL | NULL | 24.7 | 23.2 | 91% | 25 | 75.64 | 0.0 | ||||||
| 05 | 23:15 | SE 20 G 31 | 0.00 | NULL | NULL | 24.8 | 23.2 | 91% | 25 | 75.62 | 0.0 | ||||||
| 05 | 22:55 | SE 22 G 33 | 0.00 | Overcast | BKN018 OVC047 | 25 | 23.2 | 90% | 26 | 75.62 | 0.0 | ||||||
| 05 | 22:35 | SE 20 | 0.00 | NULL | NULL | 25.3 | 23.3 | 89% | 26 | 75.62 | 0.0 | ||||||
| 05 | 22:15 | SE 20 | 0.00 | Overcast | BKN025 OVC036 | 25.5 | 23.3 | 88% | 27 | 75.59 | 0.0 | ||||||
| 05 | 21:55 | S 15 | 0.00 | Overcast | SCT025 OVC034 | 25.8 | 23.2 | 86% | 27 | 75.59 | 0.0 | ||||||
| 05 | 21:35 | SE 15 | 0.00 | Overcast | OVC034 | 26 | 23.2 | 85% | 28 | 75.57 | 0.0 | ||||||
| 05 | 21:15 | SE 15 | 0.00 | Overcast | OVC036 | 26.2 | 23.2 | 84% | 28 | 75.54 | 0.0 | ||||||
| 05 | 20:55 | S 15 | 0.00 | Overcast | OVC036 | 26.5 | 23.2 | 82% | 29 | 75.54 | 0.0 | ||||||
| 05 | 20:35 | S 13 G 26 | 0.00 | Overcast | OVC036 | 26.6 | 23.1 | 81% | 29 | 75.51 | 0.0 | ||||||
| 05 | 20:15 | SE 15 | 0.00 | Overcast | OVC038 | 26.7 | 23.2 | 81% | 29 | 75.49 | 0.0 | ||||||
| 05 | 19:55 | SE 13 | 0.00 | Mostly Cloudy | BKN038 | 27 | 23.3 | 80% | 30 | 75.46 | 0.0 | ||||||
| 05 | 19:35 | SE 15 | 0.00 | Overcast | SCT027 OVC036 | 27.7 | 23.3 | 77% | 31 | 75.44 | 0.0 | ||||||
| 05 | 19:15 | SE 13 G 26 | 0.00 | Overcast | BKN027 OVC038 | 28.1 | 23.6 | 77% | 32 | 75.44 | 0.0 | ||||||
| 05 | 18:55 | SE 15 | 0.00 | Partly Cloudy | SCT037 | 28.5 | 23.3 | 30.6 | 26.2 | 73% | 32 | 75.41 | 0.0 | ||||
| 05 | 18:35 | SE 17 G 28 | 0.00 | Partly Cloudy | SCT028 SCT041 | 29.1 | 23.2 | 71% | 33 | 75.41 | 0.0 | ||||||
| 05 | 18:15 | S 17 G 30 | 0.00 | Mostly Cloudy | SCT034 BKN039 | 29.5 | 23.3 | 69% | 34 | 75.41 | 0.0 | ||||||
| 05 | 17:55 | S 15 | 0.00 | Partly Cloudy | SCT037 | 29.9 | 23 | 67% | 34 | 75.41 | 0.0 | ||||||
| 05 | 17:35 | S 11 | 0.00 | Mostly Cloudy | SCT032 BKN040 | 30.1 | 23.3 | 67% | 35 | 75.41 | 0.0 | ||||||
| 05 | 17:15 | S 19 | 0.00 | Partly Cloudy | SCT032 SCT038 | 30.4 | 23.1 | 65% | 35 | 75.41 | 0.0 | ||||||
| 05 | 16:55 | S 13 | 0.00 | Mostly Cloudy | BKN036 | 30.3 | 23 | 65% | 35 | 75.44 | 0.0 | ||||||
| 05 | 16:35 | S 20 | 0.00 | Partly Cloudy | SCT034 | 30.2 | 22.9 | 65% | 34 | 75.46 | 0.0 | ||||||
| 05 | 16:15 | SE 13 G 26 | 0.00 | Partly Cloudy | SCT034 | 30.1 | 23.1 | 66% | 34 | 75.46 | 0.0 | ||||||
| 05 | 15:55 | S 17 G 30 | 0.00 | Mostly Cloudy | BKN032 BKN038 | 30.4 | 23.1 | 65% | 35 | 75.49 | 0.0 | ||||||
| 05 | 15:35 | S 15 | 0.00 | Mostly Cloudy | SCT029 BKN037 | 30.1 | 23.1 | 66% | 34 | 75.54 | 0.0 | ||||||
| 05 | 15:15 | S 17 | 0.00 | Mostly Cloudy | SCT027 BKN035 | 30.2 | 23.3 | 67% | 35 | 75.54 | 0.0 | ||||||
| 05 | 14:35 | S 15 | 0.00 | Overcast | SCT023 BKN029 OVC036 | 29 | 23.1 | 71% | 33 | 75.59 | 0.0 | ||||||
| 05 | 14:15 | S 13 | 0.00 | Overcast | BKN022 OVC034 | 28.3 | 23.1 | 73% | 32 | 75.62 | 0.0 | ||||||
| 05 | 13:55 | S 11 | 0.00 | Overcast | OVC022 | 27.2 | 23 | 78% | 30 | 75.64 | 0.0 | ||||||
| 05 | 13:35 | S 7 | 0.00 | Overcast | BKN022 OVC028 | 26.7 | 22.7 | 79% | 29 | 75.67 | 0.0 | ||||||
| 05 | 13:15 | S 7 | 0.00 | Overcast | SCT018 OVC026 | 26.8 | 22.8 | 79% | 29 | 75.67 | 0.0 | ||||||
| 05 | 12:55 | S 13 | 0.00 | Overcast | BKN020 OVC026 | 26.4 | 22.7 | 26.4 | 21.4 | 80% | 28 | 75.67 | 0.0 | ||||
| 05 | 12:35 | S 13 | 0.00 | Overcast | OVC020 | 26 | 22.5 | 81% | 28 | 75.67 | 0.0 | ||||||
| 05 | 12:15 | S 13 | 0.00 | Overcast | OVC015 | 25.7 | 22.6 | 83% | 27 | 75.67 | 0.0 | ||||||
| 05 | 11:55 | S 11 | 0.00 | Overcast | OVC015 | 25.1 | 22.6 | 86% | 26 | 75.69 | 0.0 | ||||||
| 05 | 11:35 | S 11 | 0.00 | Overcast | OVC015 | 24.8 | 22.2 | 86% | 25 | 75.69 | 0.0 | ||||||
| 05 | 11:15 | S 11 | 0.00 | Overcast | BKN012 OVC018 | 24.2 | 22.5 | 90% | 24 | 75.69 | 0.0 | ||||||
| 05 | 10:55 | S 7 | 0.00 | NULL | NULL | 24 | 22.2 | 90% | 24 | 75.69 | 0.0 | ||||||
| 05 | 10:35 | SW 9 | 0.00 | Overcast | BKN008 BKN015 OVC020 | 23.4 | 22.6 | 95% | 75.69 | 0.0 | |||||||
| 05 | 10:15 | S 11 | 0.00 | Overcast | OVC006 | 23 | 22.2 | 95% | 75.69 | 0.0 | |||||||
| 05 | 09:55 | S 11 | 0.00 | Overcast | OVC008 | 23 | 22 | 94% | 75.67 | 0.0 | |||||||
| 05 | 09:35 | S 15 | 0.00 | Overcast | OVC008 | 22.9 | 21.8 | 94% | 75.67 | 0.0 | |||||||
| 05 | 09:15 | S 15 | 0.00 | Overcast | BKN008 OVC012 | 22.7 | 21.7 | 94% | 75.67 | 0.0 | |||||||
| 05 | 08:55 | S 9 | 0.00 | Overcast | OVC008 | 22.4 | 21.6 | 95% | 75.67 | 0.0 | |||||||
| 05 | 08:35 | S 13 | 0.00 | Overcast | BKN008 OVC012 | 22.3 | 21.4 | 95% | 75.67 | 0.0 | |||||||
| 05 | 08:15 | S 11 | 0.00 | Overcast | OVC010 | 22.1 | 21.1 | 94% | 75.67 | 0.0 | |||||||
| 05 | 07:55 | S 13 | 0.00 | NULL | NULL | 22 | 21 | 94% | 75.64 | 0.0 | |||||||
| 05 | 07:35 | S 11 | 0.00 | NULL | NULL | 21.7 | 20.9 | 95% | 75.64 | 0.0 | |||||||
| 05 | 07:15 | S 11 | 0.00 | NULL | NULL | 21.5 | 20.7 | 95% | 75.62 | 0.0 | |||||||
| 05 | 06:55 | S 11 | 0.00 | NULL | NULL | 21.3 | 20.6 | 21.3 | 20.5 | 96% | 75.62 | 0.0 | |||||
| 05 | 06:35 | S 13 | 0.00 | Overcast | OVC012 | 21.2 | 20.5 | 96% | 75.62 | 0.0 | |||||||
| 05 | 06:15 | S 11 | 0.00 | NULL | NULL | 21.1 | 20.5 | 96% | 75.59 | 0.0 | |||||||
| 05 | 05:55 | S 9 | 0.00 | Overcast | BKN009 OVC014 | 21 | 20.4 | 96% | 75.62 | 0.0 | |||||||
| 05 | 05:35 | S 9 | 0.00 | Overcast | BKN012 OVC025 | 21 | 20.2 | 95% | 75.62 | 0.0 | |||||||
| 05 | 05:15 | S 11 | 0.00 | Overcast | BKN010 BKN017 OVC024 | 20.9 | 20.2 | 96% | 75.62 | 0.0 | |||||||
| 05 | 04:55 | S 7 | 0.00 | Overcast | OVC010 | 20.7 | 20.1 | 96% | 75.62 | 0.0 | |||||||
| 05 | 04:35 | S 9 | 0.00 | Overcast | OVC012 | 20.6 | 20.1 | 97% | 75.62 | 0.0 | |||||||
| 05 | 04:15 | S 7 | 0.00 | NULL | NULL | 20.5 | 19.9 | 96% | 75.62 | 0.0 | |||||||
| 05 | 03:55 | S 9 | 0.00 | Mostly Cloudy | BKN011 BKN017 | 20.5 | 19.9 | 96% | 75.64 | 0.0 | |||||||
| 05 | 03:35 | S 13 | 0.00 | NULL | NULL | 20.5 | 19.9 | 96% | 75.64 | 0.0 | |||||||
| 05 | 03:15 | S 7 | 0.00 | Mostly Cloudy | BKN010 BKN014 | 20.5 | 19.7 | 95% | 75.67 | 0.0 | |||||||
| 05 | 02:55 | S 9 | 0.00 | Mostly Cloudy | BKN010 | 20.5 | 19.8 | 96% | 75.69 | 0.0 | |||||||
| 05 | 02:35 | S 7 | 0.00 | Overcast | OVC010 | 20.8 | 19.9 | 95% | 75.69 | 0.0 | |||||||
| 05 | 02:15 | S 11 | 0.00 | Mostly Cloudy | BKN010 | 20.9 | 19.9 | 94% | 75.72 | 0.0 | |||||||
| 05 | 01:55 | S 17 | 0.00 | NULL | NULL | 21 | 20 | 94% | 75.72 | 0.0 | |||||||
| 05 | 01:35 | S 15 | 0.00 | NULL | NULL | 21.1 | 20 | 93% | 75.74 | 0.0 | |||||||
| 05 | 01:15 | S 13 | 0.00 | NULL | NULL | 21.1 | 19.8 | 92% | 75.74 | 0.0 | |||||||
| 05 | 00:55 | S 17 | 0.00 | NULL | NULL | 21.1 | 19.7 | 26.5 | 21 | 92% | 75.74 | 0.0 | |||||
| 05 | 00:35 | S 15 | 0.00 | NULL | NULL | 21.1 | 19.6 | 91% | 75.74 | 0.0 | |||||||
| 05 | 00:15 | S 15 | 0.00 | NULL | NULL | 21.2 | 19.5 | 90% | 75.74 | 0.0 | |||||||
| 04 | 23:55 | S 15 | 0.00 | NULL | NULL | 21.4 | 19.5 | 89% | 75.79 | 0.0 | |||||||
| 04 | 23:35 | S 13 | 0.00 | NULL | NULL | 21.5 | 19.5 | 88% | 75.79 | 0.0 | |||||||
| 04 | 23:15 | S 13 | 0.00 | NULL | NULL | 21.7 | 19.5 | 87% | 75.77 | 0.0 | |||||||
| 04 | 22:55 | S 11 | 0.00 | NULL | NULL | 21.8 | 19.5 | 87% | 75.77 | 0.0 | |||||||
| 04 | 22:35 | S 13 | 0.00 | Fair | CLR | 22.1 | 19.5 | 85% | 75.79 | 0.0 | |||||||
| 04 | 22:15 | S 9 | 0.00 | Fair | CLR | 22.5 | 19.5 | 83% | 75.79 | 0.0 | |||||||
| 04 | 21:55 | S 15 | 0.00 | Fair | CLR | 22.6 | 19.6 | 83% | 75.77 | 0.0 | |||||||
| Date | Time (cdt) | Wind (kph) | Vis. (km) | Weather | Sky Cond. | Air | Dwpt | Max. | Min. | Relative Humidity | Wind Chill (°C) | Heat Index (°C) | altimeter (cm) | sea level (mb) | 1 hr | 3 hr | 6 hr |
| 6 hour | |||||||||||||||||
| Temperature (ºC) | Pressure | Precipitation (cm) | |||||||||||||||